SRC3699 SKBO-SKCC

Flight info

Callsign SRC3699
Flight time N/A
Altitude 29000
Route OSUSU4R OSUSU DCT BUV DCT ESNUT ESNUT1K
Aircraft C750/M-SBDE3FGHRWXY/S

Departure

Time N/A
Airport El Dorado International Airport (SKBO)

Arrival

Time 2026-04-27 04:27
Airport Camilo Daza International Airport (SKCC)
Time Latitude Longitude Altitude Speed Heading
2026-04-27 03:31 6.55242 -73.28554 29146 ft 495 kts 31°
2026-04-27 03:32 6.61263 -73.25184 29165 ft 493 kts 31°
2026-04-27 03:32 6.67231 -73.21847 29175 ft 491 kts 31°
2026-04-27 03:33 6.73229 -73.18488 29143 ft 490 kts 31°
2026-04-27 03:33 6.79176 -73.15159 29164 ft 489 kts 31°
2026-04-27 03:34 6.85116 -73.11828 29163 ft 488 kts 31°
2026-04-27 03:34 6.91080 -73.08489 29184 ft 487 kts 31°
2026-04-27 03:35 6.96996 -73.05177 29177 ft 487 kts 31°
2026-04-27 03:35 7.02910 -73.01858 29182 ft 486 kts 31°
2026-04-27 03:36 7.08814 -72.98551 29213 ft 486 kts 31°
2026-04-27 03:36 7.14736 -72.95228 29237 ft 485 kts 31°
2026-04-27 03:37 7.20488 -72.92000 29277 ft 484 kts 31°
2026-04-27 03:37 7.23389 -72.90375 29234 ft 464 kts 31°
2026-04-27 03:37 7.26142 -72.88831 28674 ft 444 kts 31°
2026-04-27 03:37 7.28804 -72.87335 28066 ft 428 kts 31°
2026-04-27 03:38 7.31354 -72.85900 27470 ft 414 kts 31°
2026-04-27 03:38 7.33518 -72.84685 26959 ft 402 kts 31°
2026-04-27 03:38 7.35942 -72.83325 26369 ft 391 kts 31°
2026-04-27 03:38 7.38298 -72.82001 25780 ft 380 kts 31°
2026-04-27 03:39 7.40568 -72.80726 25203 ft 371 kts 31°
2026-04-27 03:39 7.42806 -72.79468 24627 ft 363 kts 31°
2026-04-27 03:39 7.44982 -72.78247 24053 ft 355 kts 30°
2026-04-27 03:39 7.47109 -72.77050 23490 ft 348 kts 30°
2026-04-27 03:40 7.49222 -72.75865 22934 ft 342 kts 31°
2026-04-27 03:40 7.51374 -72.74944 22360 ft 338 kts 14°
2026-04-27 03:40 7.53658 -72.74491 21855 ft 332 kts 13°
2026-04-27 03:40 7.55929 -72.74012 21315 ft 327 kts 13°
2026-04-27 03:41 7.58141 -72.73554 20779 ft 322 kts 13°
2026-04-27 03:41 7.60302 -72.73106 20242 ft 318 kts 13°
2026-04-27 03:41 7.62460 -72.72658 19699 ft 315 kts 13°
2026-04-27 03:41 7.64600 -72.72215 19112 ft 313 kts 13°
2026-04-27 03:42 7.66741 -72.71767 18496 ft 312 kts 12°
2026-04-27 03:42 7.68850 -72.71333 17887 ft 310 kts 13°
2026-04-27 03:42 7.70966 -72.70891 17261 ft 309 kts 12°
2026-04-27 03:42 7.73053 -72.70460 16644 ft 307 kts 12°
2026-04-27 03:43 7.75131 -72.69996 16020 ft 304 kts 19°
2026-04-27 03:43 7.76909 -72.68877 15409 ft 300 kts 46°
2026-04-27 03:43 7.78302 -72.67350 14834 ft 298 kts 46°
2026-04-27 03:43 7.79726 -72.65852 14227 ft 296 kts 47°
2026-04-27 03:44 7.81143 -72.64342 13613 ft 295 kts 46°
2026-04-27 03:44 7.82547 -72.62846 12997 ft 294 kts 46°
2026-04-27 03:44 7.83937 -72.61369 12386 ft 292 kts 46°
2026-04-27 03:44 7.85335 -72.59882 11782 ft 291 kts 46°
2026-04-27 03:45 7.86719 -72.58410 11184 ft 289 kts 47°
2026-04-27 03:45 7.88102 -72.56937 10562 ft 288 kts 47°
2026-04-27 03:45 7.89466 -72.55485 10122 ft 279 kts 47°
2026-04-27 03:45 7.90750 -72.54117 10029 ft 259 kts 47°
2026-04-27 03:46 7.91942 -72.52847 10014 ft 238 kts 47°
2026-04-27 03:46 7.93083 -72.51726 9986 ft 219 kts 32°
2026-04-27 03:46 7.94477 -72.51341 10027 ft 203 kts
2026-04-27 03:46 7.95870 -72.51254 10016 ft 198 kts
2026-04-27 03:47 7.97255 -72.51160 9957 ft 198 kts
2026-04-27 03:47 7.98647 -72.51082 9827 ft 202 kts
2026-04-27 03:47 8.00077 -72.51003 9665 ft 206 kts
2026-04-27 03:47 8.01529 -72.50926 9486 ft 205 kts
2026-04-27 03:48 8.02946 -72.50851 9287 ft 202 kts
2026-04-27 03:48 8.04351 -72.50778 9066 ft 202 kts
2026-04-27 03:48 8.05766 -72.50701 8752 ft 207 kts
2026-04-27 03:48 8.07226 -72.50626 8445 ft 209 kts
2026-04-27 03:49 8.08683 -72.50548 8136 ft 212 kts
2026-04-27 03:49 8.10168 -72.50468 7842 ft 213 kts
2026-04-27 03:49 8.11666 -72.50388 7544 ft 214 kts
2026-04-27 03:49 8.13204 -72.50306 6977 ft 224 kts
2026-04-27 03:50 8.14536 -72.50235 6447 ft 223 kts
2026-04-27 03:50 8.15999 -72.50088 5852 ft 222 kts 16°
2026-04-27 03:50 8.17319 -72.49301 5225 ft 220 kts 46°
2026-04-27 03:50 8.18060 -72.47968 4609 ft 220 kts 76°
2026-04-27 03:51 8.18006 -72.46515 4417 ft 200 kts 107°
2026-04-27 03:51 8.17398 -72.45476 4377 ft 179 kts 133°
2026-04-27 03:51 8.16415 -72.44867 4369 ft 157 kts 164°
2026-04-27 03:51 8.15381 -72.44674 4438 ft 153 kts 174°
2026-04-27 03:52 8.14301 -72.44710 4470 ft 160 kts 186°
2026-04-27 03:52 8.13187 -72.44920 4444 ft 164 kts 191°
2026-04-27 03:52 8.12040 -72.45208 4314 ft 173 kts 193°
2026-04-27 03:52 8.10863 -72.45579 4188 ft 180 kts 197°
2026-04-27 03:53 8.09643 -72.45970 4055 ft 185 kts 197°
2026-04-27 03:53 8.08421 -72.46352 3853 ft 181 kts 197°
2026-04-27 03:53 8.07212 -72.46726 3649 ft 180 kts 196°
2026-04-27 03:53 8.06010 -72.47096 3442 ft 179 kts 196°
2026-04-27 03:54 8.04824 -72.47460 3230 ft 178 kts 196°
2026-04-27 03:54 8.03637 -72.47824 3009 ft 176 kts 196°
2026-04-27 03:54 8.02473 -72.48181 2795 ft 174 kts 197°
2026-04-27 03:54 8.01316 -72.48534 2581 ft 173 kts 197°
2026-04-27 03:55 8.00160 -72.48889 2362 ft 172 kts 197°
2026-04-27 03:55 7.99013 -72.49239 2144 ft 172 kts 197°
2026-04-27 03:55 7.97850 -72.49597 1927 ft 172 kts 198°
2026-04-27 03:55 7.96698 -72.49950 1712 ft 173 kts 198°
2026-04-27 03:56 7.95537 -72.50307 1502 ft 173 kts 197°
2026-04-27 03:56 7.94396 -72.50649 1341 ft 170 kts 198°
2026-04-27 03:56 7.93272 -72.51000 1097 ft 166 kts 198°
2026-04-27 03:56 7.92243 -72.51331 1083 ft 147 kts 200°
2026-04-27 03:57 7.91123 -72.51732 1462 ft 192 kts 202°
2026-04-27 03:57 7.89881 -72.52301 1916 ft 201 kts 207°
2026-04-27 03:57 7.88566 -72.52750 2394 ft 205 kts 196°
2026-04-27 03:57 7.87315 -72.53448 2847 ft 209 kts 231°
2026-04-27 03:58 7.86899 -72.54793 3323 ft 208 kts 276°
2026-04-27 03:58 7.87526 -72.56132 3458 ft 220 kts 317°
2026-04-27 03:58 7.88907 -72.56726 3469 ft 220 kts
2026-04-27 03:58 7.90259 -72.56194 3758 ft 206 kts 45°
2026-04-27 03:59 7.91025 -72.55001 4081 ft 201 kts 60°
2026-04-27 03:59 7.91771 -72.53807 4376 ft 201 kts 58°
2026-04-27 03:59 7.92530 -72.52615 4670 ft 201 kts 57°
2026-04-27 03:59 7.93287 -72.51440 4961 ft 201 kts 56°
2026-04-27 04:00 7.94395 -72.50609 5215 ft 200 kts 13°
2026-04-27 04:00 7.95735 -72.50834 5512 ft 198 kts 328°
2026-04-27 04:00 7.96507 -72.51940 5814 ft 197 kts 282°
2026-04-27 04:00 7.96302 -72.53258 6021 ft 200 kts 239°
2026-04-27 04:01 7.95199 -72.54140 6060 ft 210 kts 195°
2026-04-27 04:01 7.93720 -72.54170 6087 ft 219 kts 173°
2026-04-27 04:01 7.92161 -72.54005 6065 ft 230 kts 172°
2026-04-27 04:01 7.90595 -72.53570 6040 ft 236 kts 152°
2026-04-27 04:02 7.89144 -72.52728 6053 ft 241 kts 148°
2026-04-27 04:02 7.87679 -72.51878 6051 ft 245 kts 148°
2026-04-27 04:02 7.86185 -72.51002 6049 ft 249 kts 149°
2026-04-27 04:02 7.84596 -72.50279 6020 ft 254 kts 168°
2026-04-27 04:03 7.82909 -72.50540 6024 ft 235 kts 207°
2026-04-27 04:03 7.81913 -72.51675 6009 ft 204 kts 251°
2026-04-27 04:03 7.81931 -72.52975 6006 ft 176 kts 297°
2026-04-27 04:03 7.82759 -72.53764 6055 ft 166 kts 343°
2026-04-27 04:04 7.83928 -72.53783 6111 ft 173 kts 15°
2026-04-27 04:04 7.85120 -72.53437 6087 ft 184 kts 18°
2026-04-27 04:04 7.86378 -72.53060 6061 ft 187 kts 17°
2026-04-27 04:04 7.87617 -72.52628 6056 ft 189 kts 21°
2026-04-27 04:05 7.88852 -72.52150 6059 ft 190 kts 21°
2026-04-27 04:05 7.90079 -72.51678 6032 ft 188 kts 21°
2026-04-27 04:05 7.91321 -72.51279 6009 ft 186 kts
2026-04-27 04:05 7.92596 -72.51329 6024 ft 182 kts 357°
2026-04-27 04:06 7.93851 -72.51457 6007 ft 180 kts 344°
2026-04-27 04:06 7.94801 -72.52235 6022 ft 178 kts 297°
2026-04-27 04:06 7.94926 -72.53458 6039 ft 177 kts 252°
2026-04-27 04:07 7.92994 -72.54609 6061 ft 175 kts 171°
2026-04-27 04:07 7.91773 -72.54430 6051 ft 179 kts 172°
2026-04-27 04:07 7.90509 -72.54297 6049 ft 182 kts 173°
2026-04-27 04:07 7.89234 -72.54179 6044 ft 182 kts 174°
2026-04-27 04:08 7.88005 -72.53939 6021 ft 179 kts 150°
2026-04-27 04:08 7.87239 -72.53033 6047 ft 169 kts 104°
2026-04-27 04:08 7.87348 -72.51899 6056 ft 164 kts 59°
2026-04-27 04:08 7.88217 -72.51210 6055 ft 162 kts 14°
2026-04-27 04:09 7.89354 -72.51166 6058 ft 162 kts
2026-04-27 04:09 7.90498 -72.51198 6036 ft 163 kts 359°
2026-04-27 04:09 7.91640 -72.51254 6028 ft 163 kts 358°
2026-04-27 04:09 7.92777 -72.51325 6022 ft 163 kts 358°
2026-04-27 04:10 7.93898 -72.51486 6009 ft 163 kts 336°
2026-04-27 04:10 7.94669 -72.52274 6031 ft 161 kts 291°
2026-04-27 04:10 7.94667 -72.53377 6052 ft 160 kts 245°
2026-04-27 04:10 7.93907 -72.54160 6047 ft 157 kts 200°
2026-04-27 04:11 7.92845 -72.54230 6057 ft 155 kts 168°
2026-04-27 04:11 7.91731 -72.54043 6077 ft 167 kts 171°
2026-04-27 04:11 7.90515 -72.53907 6077 ft 180 kts 173°
2026-04-27 04:11 7.89238 -72.53784 6076 ft 189 kts 173°
2026-04-27 04:12 7.87990 -72.53491 6047 ft 180 kts 146°
2026-04-27 04:12 7.87290 -72.52515 6056 ft 172 kts 101°
2026-04-27 04:12 7.87493 -72.51374 6044 ft 167 kts 56°
2026-04-27 04:12 7.88430 -72.50739 6038 ft 167 kts 12°
2026-04-27 04:13 7.89574 -72.50865 6054 ft 165 kts 351°
2026-04-27 04:13 7.90734 -72.50898 6040 ft 164 kts
2026-04-27 04:13 7.91880 -72.50917 6030 ft 165 kts 358°
2026-04-27 04:13 7.93035 -72.50983 6021 ft 164 kts 358°
2026-04-27 04:14 7.94177 -72.51041 6024 ft 164 kts 359°
2026-04-27 04:14 7.95340 -72.51102 5870 ft 167 kts 359°
2026-04-27 04:14 7.96500 -72.51112 5697 ft 167 kts
2026-04-27 04:14 7.97672 -72.51073 5537 ft 167 kts
2026-04-27 04:15 7.98836 -72.51013 5369 ft 167 kts
2026-04-27 04:15 8.00014 -72.50947 5202 ft 167 kts
2026-04-27 04:15 8.01179 -72.50878 5023 ft 168 kts
2026-04-27 04:15 8.02352 -72.50808 4852 ft 168 kts
2026-04-27 04:16 8.03517 -72.50738 4677 ft 168 kts
2026-04-27 04:16 8.04698 -72.50664 4462 ft 171 kts
2026-04-27 04:16 8.05876 -72.50686 4139 ft 171 kts 351°
2026-04-27 04:16 8.06986 -72.51117 3825 ft 172 kts 330°
2026-04-27 04:17 8.07903 -72.51899 3508 ft 173 kts 311°
2026-04-27 04:17 8.08522 -72.52930 3203 ft 174 kts 293°
2026-04-27 04:17 8.08777 -72.54093 3055 ft 164 kts 274°
2026-04-27 04:17 8.08679 -72.55183 3019 ft 149 kts 257°
2026-04-27 04:18 8.08308 -72.56131 3038 ft 145 kts 241°
2026-04-27 04:18 8.07700 -72.56956 3064 ft 149 kts 225°
2026-04-27 04:18 8.06867 -72.57604 3072 ft 154 kts 208°
2026-04-27 04:18 8.05809 -72.58016 2868 ft 167 kts 191°
2026-04-27 04:19 8.04670 -72.58079 2776 ft 163 kts 173°
2026-04-27 04:19 8.03598 -72.57800 2748 ft 156 kts 155°
2026-04-27 04:19 8.02657 -72.57247 2766 ft 156 kts 144°
2026-04-27 04:19 8.01722 -72.56651 2773 ft 159 kts 147°
2026-04-27 04:20 8.00720 -72.56145 2761 ft 163 kts 163°
2026-04-27 04:20 7.99590 -72.55897 2758 ft 166 kts 166°
2026-04-27 04:20 7.98456 -72.55644 2757 ft 167 kts 166°
2026-04-27 04:20 7.97306 -72.55390 2771 ft 168 kts 167°
2026-04-27 04:21 7.96153 -72.55134 2786 ft 168 kts 166°
2026-04-27 04:21 7.95011 -72.54882 2795 ft 168 kts 166°
2026-04-27 04:21 7.93867 -72.54628 2806 ft 168 kts 166°
2026-04-27 04:21 7.92712 -72.54372 2811 ft 166 kts 166°
2026-04-27 04:22 7.91578 -72.54119 2810 ft 165 kts 166°
2026-04-27 04:22 7.90452 -72.53870 2767 ft 166 kts 166°
2026-04-27 04:22 7.89327 -72.53622 2729 ft 164 kts 166°
2026-04-27 04:22 7.88216 -72.53376 2695 ft 161 kts 166°
2026-04-27 04:23 7.87109 -72.53130 2670 ft 160 kts 166°
2026-04-27 04:23 7.86023 -72.52889 2655 ft 157 kts 166°
2026-04-27 04:23 7.85061 -72.52419 2642 ft 152 kts 136°
2026-04-27 04:23 7.84439 -72.51586 2650 ft 150 kts 113°
2026-04-27 04:24 7.84185 -72.50571 2653 ft 148 kts 90°
2026-04-27 04:24 7.84358 -72.49562 2660 ft 146 kts 66°
2026-04-27 04:24 7.84904 -72.48714 2664 ft 145 kts 45°
2026-04-27 04:24 7.85749 -72.48118 2524 ft 154 kts 23°
2026-04-27 04:25 7.86800 -72.47900 2320 ft 154 kts 359°
2026-04-27 04:25 7.87824 -72.48135 2098 ft 150 kts 336°
2026-04-27 04:25 7.88671 -72.48677 1991 ft 139 kts 328°
2026-04-27 04:25 7.89507 -72.49215 1748 ft 141 kts 330°
2026-04-27 04:26 7.90354 -72.49721 1560 ft 140 kts 330°
2026-04-27 04:26 7.91198 -72.50235 1379 ft 140 kts 330°
2026-04-27 04:26 7.92042 -72.50738 1160 ft 142 kts 330°
2026-04-27 04:26 7.92873 -72.51239 1072 ft 132 kts 328°
2026-04-27 04:27 7.93530 -72.51643 1096 ft 75 kts 329°
2026-04-27 04:27 7.93832 -72.51825 1113 ft 40 kts 329°
2026-04-27 04:27 7.93943 -72.51894 1118 ft 5 kts 329°
2026-04-27 04:27 7.93972 -72.51910 1119 ft 3 kts 330°
2026-04-27 04:28 7.93991 -72.51922 1120 ft 3 kts 328°
2026-04-27 04:28 7.94021 -72.51940 1121 ft 7 kts 328°
2026-04-27 04:28 7.94043 -72.51982 1122 ft 7 kts 234°
2026-04-27 04:28 7.94015 -72.52023 1122 ft 6 kts 242°
2026-04-27 04:29 7.93977 -72.52041 1121 ft 7 kts 153°
2026-04-27 04:29 7.93927 -72.52010 1120 ft 9 kts 148°
2026-04-27 04:29 7.93875 -72.51959 1117 ft 11 kts 118°
2026-04-27 04:29 7.93830 -72.51878 1114 ft 14 kts 119°
2026-04-27 04:30 7.93767 -72.51788 1110 ft 17 kts 146°
2026-04-27 04:30 7.93652 -72.51717 1103 ft 21 kts 148°
2026-04-27 04:30 7.93513 -72.51632 1095 ft 25 kts 148°
2026-04-27 04:30 7.93351 -72.51533 1086 ft 28 kts 149°
2026-04-27 04:31 7.93169 -72.51423 1077 ft 31 kts 148°
2026-04-27 04:31 7.92971 -72.51302 1069 ft 33 kts 149°
2026-04-27 04:31 7.92788 -72.51192 1065 ft 15 kts 148°
2026-04-27 04:31 7.92735 -72.51120 1064 ft 13 kts 69°
2026-04-27 04:32 7.92775 -72.51041 1063 ft 11 kts 73°
2026-04-27 04:32 7.92800 -72.50964 1062 ft 11 kts 62°
2026-04-27 04:32 7.92847 -72.50903 1061 ft 9 kts 25°
2026-04-27 04:32 7.92868 -72.50854 1060 ft 9 kts 117°
2026-04-27 04:33 7.92837 -72.50794 1060 ft 10 kts 116°
2026-04-27 04:33 7.92853 -72.50757 1059 ft 6 kts 25°
2026-04-27 04:33 7.92862 -72.50752 1059 ft 0 kts 28°